GW5711 Weather Reports


time (UTC)temp
C
wind
direction
speed
KPH
gust
KPH
rain 1hr
cm
rain 24hr
cm
rain mn
cm
humidity
%
barometer
mb
20260508002043 11 150 0.0 0.0 0.00 0.18 0.18 88 1012.2
20260508001538 11 120 0.0 0.0 0.00 0.18 0.18 88 1012.1
20260508001035 11 167 0.0 0.0 0.00 0.18 0.18 87 1012.1
20260508000531 12 178 0.0 0.0 0.00 0.18 0.18 87 1011.7
20260508000028 12 202 1.6 1.6 0.00 0.18 0.18 87 1011.7
20260507235525 12 192 1.6 3.2 0.00 0.18 0.18 87 1011.7
20260507235022 12 202 3.2 3.2 0.00 0.18 0.18 86 1011.6
20260507234518 12 199 1.6 3.2 0.00 0.18 0.18 86 1011.5
20260507234015 12 202 1.6 1.6 0.00 0.18 0.18 85 1011.6
20260507233512 12 177 1.6 3.2 0.00 0.18 0.18 85 1011.4
20260507233011 13 156 3.2 3.2 0.00 0.18 0.18 85 1011.4
20260507232507 13 164 0.0 0.0 0.00 0.18 0.18 84 1011.2
20260507232004 13 179 4.8 4.8 0.00 0.18 0.18 84 1011.5
20260507231500 13 170 6.4 8.0 0.00 0.18 0.18 83 1011.2
20260507230957 13 179 0.0 1.6 0.00 0.18 0.18 83 1011.2
20260507230454 13 148 0.0 1.6 0.00 0.18 0.18 83 1011.2
20260507225949 13 191 0.0 0.0 0.00 0.18 0.18 83 1011.1
20260507225446 13 162 1.6 3.2 0.00 0.18 0.18 83 1010.8
20260507224942 13 157 0.0 0.0 0.00 0.18 0.18 83 1010.8
20260507224438 13 175 1.6 3.2 0.00 0.18 0.18 84 1011.1
20260507223935 13 205 4.8 8.0 0.00 0.18 0.18 84 1010.8
20260507223431 13 175 0.0 1.6 0.00 0.18 0.18 84 1010.7
20260507222928 13 142 4.8 8.0 0.00 0.18 0.18 83 1010.7
20260507222425 13 156 0.0 1.6 0.00 0.18 0.18 83 1010.7
20260507221922 13 165 3.2 4.8 0.00 0.18 0.18 83 1010.7
20260507221418 13 201 3.2 3.2 0.00 0.18 0.18 83 1010.7
20260507220914 13 173 4.8 4.8 0.00 0.18 0.18 82 1010.5
20260507220412 13 128 3.2 4.8 0.00 0.18 0.18 82 1010.5
20260507215908 13 166 4.8 8.0 0.00 0.18 0.18 83 1010.2
20260507215405 13 204 1.6 1.6 0.00 0.18 0.18 83 1010.4
20260507214903 13 157 6.4 8.0 0.00 0.18 0.18 83 1010.4
20260507214400 13 213 4.8 4.8 0.00 0.18 0.18 83 1010.4
20260507213855 13 169 4.8 4.8 0.00 0.18 0.18 83 1010.4
20260507213352 13 202 6.4 8.0 0.00 0.18 0.18 82 1010.4
20260507212849 13 207 3.2 4.8 0.00 0.18 0.18 82 1010.3
20260507212345 13 183 6.4 8.0 0.00 0.18 0.18 82 1010.5
20260507211842 13 134 4.8 4.8 0.00 0.18 0.18 82 1010.3
20260507211339 14 156 8.0 9.7 0.00 0.18 0.18 81 1010.2
20260507210835 14 187 8.0 9.7 0.00 0.18 0.18 81 1010.4
20260507210333 14 137 4.8 8.0 0.00 0.18 0.18 83 1010.4
20260507205829 13 207 0.0 1.6 0.00 0.18 0.18 83 1010.2
20260507205326 13 209 4.8 11.3 0.00 0.18 0.18 83 1010.3
20260507204822 14 181 4.8 4.8 0.00 0.18 0.18 83 1010.3
20260507204320 14 183 3.2 3.2 0.00 0.18 0.18 83 1010.3
20260507203817 14 189 1.6 1.6 0.00 0.18 0.18 82 1010.3
20260507203315 13 146 3.2 3.2 0.00 0.18 0.18 83 1010.5
20260507202811 13 148 3.2 3.2 0.00 0.18 0.18 83 1010.5
20260507202307 15 194 4.8 8.0 0.00 0.18 0.18 82 1010.4
20260507201802 14 136 3.2 3.2 0.00 0.18 0.18 81 1010.5
20260507201259 15 213 0.0 1.6 0.00 0.18 0.18 80 1010.6
20260507200755 14 148 3.2 3.2 0.00 0.18 0.18 81 1010.5
20260507200251 14 158 1.6 1.6 0.00 0.18 0.18 82 1010.7
20260507195747 14 136 3.2 3.2 0.00 0.18 0.18 82 1010.5
20260507195245 15 119 8.0 11.3 0.00 0.18 0.18 81 1010.8
20260507194742 15 160 4.8 8.0 0.00 0.18 0.18 80 1011.2
20260507194238 15 172 1.6 1.6 0.00 0.18 0.18 82 1011.1
20260507193735 14 164 4.8 4.8 0.00 0.18 0.18 80 1011.3
20260507193231 13 144 0.0 0.0 0.00 0.18 0.18 81 1011.3
20260507192728 14 176 8.0 9.7 0.00 0.18 0.18 81 1011.4
20260507192224 13 116 1.6 3.2 0.00 0.18 0.18 81 1011.4
20260507191720 13 163 3.2 4.8 0.00 0.18 0.18 82 1011.6
20260507191218 13 183 1.6 1.6 0.00 0.18 0.18 84 1011.8
20260507190714 12 151 3.2 3.2 0.00 0.18 0.18 84 1011.6
20260507190213 12 160 1.6 3.2 0.00 0.18 0.18 85 1011.6
20260507185711 12 155 3.2 4.8 0.00 0.18 0.18 86 1011.8
20260507185202 13 154 3.2 3.2 0.00 0.18 0.18 87 1011.7
20260507184700 12 158 3.2 4.8 0.00 0.18 0.18 85 1011.6
20260507184158 13 132 3.2 4.8 0.00 0.18 0.18 87 1011.7
20260507183653 12 173 1.6 1.6 0.00 0.18 0.18 86 1011.8
20260507183150 12 162 0.0 1.6 0.00 0.18 0.18 84 1012.0
20260507182647 12 179 4.8 4.8 0.00 0.18 0.18 84 1012.1
20260507182143 12 182 1.6 3.2 0.00 0.18 0.18 83 1011.9
20260507181639 12 152 0.0 1.6 0.13 0.18 0.18 83 1012.0
20260507181136 12 160 0.0 0.0 0.13 0.18 0.18 84 1012.0
20260507180632 12 174 4.8 4.8 0.00 0.15 0.15 83 1012.2
20260507180130 13 107 0.0 0.0 0.00 0.15 0.15 82 1012.0
20260507175625 13 137 1.6 1.6 0.00 0.15 0.15 81 1011.9
20260507175123 12 113 0.0 0.0 0.00 0.15 0.15 82 1012.1
20260507174620 12 178 1.6 1.6 0.00 0.15 0.15 82 1012.3
20260507174118 12 155 1.6 1.6 0.00 0.15 0.15 83 1012.3
20260507173615 12 153 0.0 0.0 0.00 0.15 0.15 84 1012.4
20260507173112 12 156 1.6 1.6 0.00 0.15 0.15 83 1012.2
20260507172608 12 189 0.0 1.6 0.00 0.15 0.15 83 1012.4
20260507172106 12 103 1.6 1.6 0.00 0.15 0.15 82 1012.4
20260507171601 12 159 0.0 0.0 0.00 0.15 0.15 83 1012.5
20260507171058 12 186 1.6 3.2 0.00 0.15 0.15 84 1012.7
20260507170555 12 116 0.0 0.0 0.00 0.15 0.15 84 1012.8
20260507170052 12 121 0.0 1.6 0.00 0.15 0.15 84 1012.7
20260507165547 12 126 1.6 1.6 0.00 0.15 0.15 85 1012.9
20260507165044 12 137 1.6 3.2 0.00 0.15 0.15 85 1013.0
20260507164540 12 100 1.6 1.6 0.00 0.15 0.15 87 1013.0
20260507164037 12 119 0.0 0.0 0.18 0.15 0.15 87 1013.1
20260507163534 11 111 1.6 1.6 0.18 0.15 0.15 87 1013.1
20260507163032 11 121 0.0 0.0 0.18 0.15 0.15 87 1013.2
20260507162526 11 117 3.2 3.2 0.00 0.13 0.13 86 1013.3
20260507162023 11 112 0.0 1.6 0.00 0.13 0.13 85 1014.0
20260507161520 11 123 0.0 0.0 0.00 0.13 0.13 87 1013.5
20260507161017 11 109 0.0 0.0 0.00 0.13 0.13 86 1013.5
20260507160513 11 97 1.6 3.2 0.00 0.13 0.13 86 1013.5
20260507160009 11 101 1.6 1.6 0.00 0.13 0.13 86 1013.7
20260507155504 11 116 3.2 3.2 0.00 0.13 0.13 85 1013.8
20260507155002 12 81 3.2 3.2 0.00 0.13 0.13 85 1013.7
20260507154458 12 68 1.6 3.2 0.00 0.13 0.13 87 1013.5
20260507153955 12 100 0.0 1.6 0.00 0.13 0.13 88 1013.9
20260507153452 11 113 0.0 0.0 0.00 0.13 0.13 89 1013.9
20260507152949 11 115 0.0 0.0 0.00 0.13 0.13 90 1014.2
20260507152444 11 122 0.0 0.0 0.00 0.13 0.13 89 1014.1
20260507151941 11 130 0.0 0.0 0.00 0.13 0.13 90 1014.3
20260507151437 11 118 0.0 0.0 0.13 0.13 0.13 90 1014.1
20260507150934 11 83 1.6 1.6 0.13 0.13 0.13 89 1014.0
20260507150431 11 107 1.6 3.2 0.18 0.10 0.10 88 1013.9
20260507145927 11 140 0.0 0.0 0.18 0.10 0.10 88 1014.0
20260507145423 11 145 0.0 0.0 0.00 0.08 0.08 88 1013.9
20260507144921 11 65 3.2 3.2 0.00 0.08 0.08 87 1013.9
20260507144417 11 87 0.0 1.6 0.18 0.08 0.08 88 1013.9
20260507143914 11 100 1.6 1.6 0.18 0.08 0.08 87 1013.8
20260507143412 11 90 0.0 0.0 0.00 0.05 0.05 87 1014.0
20260507142908 11 122 0.0 0.0 0.00 0.05 0.05 88 1013.9
20260507142404 11 106 1.6 1.6 0.00 0.05 0.05 87 1014.1
20260507141901 11 61 1.6 1.6 0.00 0.05 0.05 86 1014.1
20260507141357 11 45 3.2 3.2 0.00 0.05 0.05 86 1014.2
20260507140854 11 83 0.0 1.6 0.00 0.05 0.05 86 1014.3
20260507140351 11 105 0.0 0.0 0.13 0.05 0.05 86 1014.5
20260507135849 11 103 0.0 0.0 0.13 0.05 0.05 86 1014.3
20260507135345 11 77 3.2 3.2 0.00 0.03 0.03 85 1014.1
20260507134843 11 134 0.0 0.0 0.00 0.03 0.03 85 1014.3
20260507134339 11 113 0.0 0.0 0.00 0.03 0.03 85 1014.5
20260507133835 11 127 1.6 3.2 0.00 0.03 0.03 85 1014.3
20260507133330 11 127 0.0 0.0 0.00 0.03 0.03 85 1014.3
20260507132829 11 124 0.0 0.0 0.00 0.03 0.03 85 1014.4
20260507132325 11 129 0.0 0.0 0.00 0.03 0.03 85 1014.5
20260507131823 11 112 0.0 0.0 0.00 0.03 0.03 85 1014.4
20260507131319 11 113 0.0 0.0 0.00 0.03 0.03 84 1014.3
20260507130816 11 100 0.0 0.0 0.00 0.03 0.03 85 1014.2
20260507130313 11 114 0.0 0.0 0.00 0.03 0.03 85 1014.4
20260507125812 11 60 1.6 3.2 0.00 0.03 0.03 85 1014.3
20260507125309 11 83 3.2 3.2 0.00 0.03 0.03 84 1014.3
20260507124806 11 98 1.6 3.2 0.00 0.03 0.03 85 1014.1
20260507124302 11 73 1.6 1.6 0.00 0.03 0.03 85 1014.2
20260507123801 11 73 1.6 1.6 0.00 0.03 0.03 86 1014.0
20260507123258 11 81 1.6 1.6 0.00 0.03 0.03 86 1014.2
20260507122754 11 97 1.6 1.6 0.00 0.03 0.03 86 1014.3
20260507122249 11 318 3.2 3.2 0.00 0.03 0.03 86 1014.0
20260507121746 11 72 0.0 1.6 0.00 0.03 0.03 86 1014.1
20260507121241 11 91 1.6 1.6 0.00 0.03 0.03 86 1014.3
20260507120738 11 52 3.2 3.2 0.00 0.03 0.03 86 1014.1
20260507120235 11 17 1.6 3.2 0.00 0.03 0.03 87 1013.9
20260507115731 11 13 1.6 1.6 0.00 0.03 0.03 87 1013.9
20260507115227 11 141 0.0 0.0 0.00 0.03 0.03 87 1013.9
20260507114722 11 90 1.6 1.6 0.00 0.03 0.03 88 1014.1
20260507114220 11 14 4.8 4.8 0.00 0.03 0.03 88 1014.1
20260507113718 11 86 1.6 3.2 0.00 0.03 0.03 89 1014.2
20260507113214 11 89 1.6 1.6 0.00 0.03 0.03 89 1013.9
20260507112712 11 51 1.6 3.2 0.00 0.03 0.03 89 1013.9
20260507112209 11 82 1.6 1.6 0.00 0.03 0.03 89 1014.0
20260507111706 11 80 1.6 1.6 0.00 0.03 0.03 89 1013.9
20260507111203 11 134 0.0 0.0 0.00 0.03 0.03 90 1013.8
20260507110658 11 67 3.2 3.2 0.00 0.03 0.03 90 1013.8
20260507110156 11 92 1.6 1.6 0.00 0.03 0.03 90 1013.9
20260507105653 11 85 0.0 1.6 0.00 0.03 0.03 90 1013.4
20260507105148 11 49 1.6 3.2 0.00 0.03 0.03 91 1013.3
20260507104646 11 86 1.6 1.6 0.00 0.03 0.03 91 1013.3
20260507104142 11 108 1.6 1.6 0.00 0.03 0.03 90 1013.1
20260507103638 11 61 1.6 1.6 0.00 0.03 0.03 91 1013.4
20260507103135 11 70 0.0 1.6 0.00 0.03 0.03 91 1013.0
20260507102632 11 73 1.6 3.2 0.00 0.03 0.03 91 1013.2
20260507102128 11 108 1.6 1.6 0.00 0.03 0.03 91 1013.1
20260507101624 11 132 0.0 0.0 0.00 0.03 0.03 91 1012.9
20260507101120 11 81 3.2 3.2 0.00 0.03 0.03 91 1013.2
20260507100618 11 131 0.0 0.0 0.00 0.03 0.03 91 1013.3
20260507100115 11 115 1.6 1.6 0.00 0.03 0.03 91 1013.2
20260507095613 11 100 1.6 3.2 0.00 0.03 0.03 91 1013.2
20260507095109 11 96 3.2 3.2 0.00 0.03 0.03 91 1013.0
20260507094606 11 57 0.0 1.6 0.00 0.03 0.03 92 1013.2
20260507094103 11 102 1.6 3.2 0.00 0.03 0.03 91 1013.0
20260507093600 11 78 3.2 4.8 0.00 0.03 0.03 92 1013.2
20260507093059 12 75 1.6 3.2 0.00 0.03 0.03 92 1013.3
20260507092555 12 359 3.2 3.2 0.00 0.03 0.03 92 1012.8
20260507092051 12 60 1.6 3.2 0.00 0.03 0.03 92 1012.7
20260507091548 12 100 0.0 0.0 0.00 0.03 0.03 92 1012.9
20260507091044 12 38 3.2 3.2 0.00 0.03 0.03 92 1013.0
20260507090540 12 142 0.0 0.0 0.00 0.03 0.03 92 1013.1
20260507090037 12 86 0.0 1.6 0.00 0.03 0.03 92 1012.9
20260507085535 12 46 3.2 3.2 0.00 0.03 0.03 91 1013.1
20260507085031 12 86 1.6 3.2 0.00 0.03 0.03 91 1012.8
20260507084528 12 34 4.8 4.8 0.00 0.03 0.03 91 1012.8
20260507084025 12 65 3.2 4.8 0.00 0.03 0.03 92 1012.6
20260507083521 12 32 6.4 9.7 0.00 0.03 0.03 91 1012.5
20260507083018 12 24 3.2 4.8 0.00 0.03 0.03 91 1012.3
20260507082514 12 42 4.8 8.0 0.00 0.03 0.03 91 1012.5
20260507082010 12 35 4.8 8.0 0.00 0.03 0.03 92 1012.7
20260507081507 12 314 4.8 9.7 0.00 0.03 0.03 92 1012.5
20260507081004 12 23 4.8 4.8 0.00 0.03 0.03 92 1012.6
20260507080459 12 32 6.4 8.0 0.00 0.03 0.03 92 1012.8
20260507075955 13 59 3.2 3.2 0.00 0.03 0.03 92 1012.5
20260507075452 13 42 1.6 3.2 0.00 0.03 0.03 92 1012.4
20260507074948 13 41 4.8 4.8 0.00 0.03 0.03 92 1012.5
20260507074445 13 24 4.8 4.8 0.00 0.03 0.03 92 1012.4
20260507073943 13 52 3.2 3.2 0.00 0.03 0.03 92 1012.3
20260507073439 13 32 8.0 9.7 0.00 0.03 0.03 92 1012.6
20260507072936 15 46 3.2 4.8 0.00 0.03 0.03 92 1012.3
20260507072434 15 53 4.8 4.8 0.00 0.03 0.03 92 1012.5
20260507071931 15 93 0.0 0.0 0.00 0.03 0.03 90 1012.3
20260507071428 15 139 0.0 0.0 0.00 0.03 0.03 90 1012.3
20260507070924 15 134 0.0 0.0 0.00 0.03 0.03 90 1011.9
20260507070422 15 142 0.0 0.0 0.00 0.03 0.03 90 1012.1
20260507065918 15 147 0.0 0.0 0.00 0.03 0.03 90 1011.9
20260507065415 15 124 0.0 0.0 0.00 0.03 0.03 90 1011.9
20260507064912 15 131 0.0 0.0 0.00 0.03 0.03 91 1011.9
20260507064410 15 354 0.0 0.0 0.00 0.03 0.03 91 1012.0
20260507063908 15 143 0.0 0.0 0.00 0.03 0.03 90 1011.8
20260507063405 15 115 0.0 0.0 0.00 0.03 0.03 90 1011.9
20260507062902 16 131 0.0 0.0 0.00 0.03 0.03 90 1011.9
20260507062359 16 163 0.0 0.0 0.00 0.03 0.03 89 1012.3
20260507061856 16 185 0.0 0.0 0.00 0.03 0.03 89 1012.0
20260507061354 16 124 0.0 0.0 0.00 0.03 0.03 88 1012.3
20260507060853 16 148 0.0 0.0 0.00 0.03 0.03 89 1012.1
20260507060349 16 181 0.0 1.6 0.00 0.03 0.03 90 1012.2
20260507055846 16 154 1.6 1.6 0.00 0.03 0.03 90 1012.2
20260507055340 16 109 3.2 3.2 0.00 0.03 0.03 92 1012.2
20260507054838 15 16 3.2 3.2 0.00 0.03 0.03 94 1012.4
20260507054334 15 338 4.8 4.8 0.00 0.03 0.03 97 1012.1
20260507053831 16 4 6.4 9.7 0.00 0.03 0.03 99 1012.4
20260507053329 16 79 0.0 0.0 0.00 0.03 0.03 99 1012.5
20260507052828 16 101 3.2 4.8 0.00 0.03 0.03 99 1012.4
20260507052324 16 134 0.0 0.0 0.00 0.03 0.03 99 1012.3
20260507051822 16 39 3.2 3.2 0.00 0.03 0.03 99 1012.2
20260507051319 16 37 3.2 3.2 0.00 0.03 0.03 99 1012.1
20260507050816 16 63 1.6 3.2 0.00 0.03 0.03 99 1011.9
20260507050312 16 84 0.0 0.0 0.00 0.03 0.03 99 1011.7
20260507045809 16 354 0.0 0.0 0.00 0.03 0.03 98 1011.7
20260507045306 16 102 0.0 0.0 0.00 0.03 0.03 97 1011.1
20260507044803 16 159 0.0 0.0 0.00 0.03 0.03 97 1010.8
20260507044259 16 168 1.6 1.6 0.00 0.03 0.03 96 1010.4
20260507043755 16 150 0.0 1.6 0.00 0.03 0.03 96 1011.1
20260507043252 16 154 0.0 1.6 0.00 0.03 0.03 96 1011.5
20260507042748 16 90 3.2 3.2 0.00 0.03 0.03 96 1012.2
20260507042243 16 77 4.8 4.8 0.00 0.03 0.03 96 1011.9
20260507041741 16 344 4.8 4.8 0.00 0.03 0.03 96 1012.0
20260507041237 16 3 3.2 3.2 0.18 0.03 0.03 97 1011.6
20260507040735 16 44 0.0 0.0 0.18 0.03 0.03 97 1011.8
20260507040231 17 25 4.8 8.0 0.00 0.00 0.00 97 1011.8
20260507035727 17 337 4.8 8.0 0.00 0.13 0.13 97 1012.0
20260507035222 17 0 4.8 4.8 0.00 0.13 0.13 96 1012.1
20260507034720 17 355 4.8 4.8 0.00 0.13 0.13 95 1012.1
20260507034217 17 146 0.0 0.0 0.00 0.13 0.13 94 1012.0
20260507033715 17 131 0.0 0.0 0.00 0.13 0.13 93 1012.2
20260507033212 17 140 0.0 0.0 0.00 0.13 0.13 92 1012.1
20260507032710 17 161 0.0 0.0 0.00 0.13 0.13 92 1012.4
20260507032205 17 123 0.0 0.0 0.13 0.13 0.13 92 1012.6
20260507031702 17 14 4.8 4.8 0.13 0.13 0.13 92 1012.8
20260507031159 17 120 0.0 0.0 0.00 0.10 0.10 91 1012.3
20260507030656 17 156 0.0 0.0 0.00 0.10 0.10 91 1012.2
20260507030154 17 195 0.0 0.0 0.00 0.10 0.10 91 1012.4
20260507025651 17 350 3.2 3.2 0.00 0.10 0.10 91 1012.5
20260507025147 17 54 4.8 4.8 0.18 0.10 0.10 88 1011.9
20260507024645 17 162 0.0 0.0 0.18 0.10 0.10 87 1012.0
20260507024143 17 185 0.0 0.0 0.00 0.08 0.08 85 1012.0
20260507023638 17 194 0.0 0.0 0.00 0.08 0.08 85 1011.8
20260507023136 17 172 0.0 0.0 0.13 0.08 0.08 84 1012.0
20260507022632 18 132 0.0 0.0 0.13 0.08 0.08 83 1011.8
20260507022128 18 143 0.0 0.0 0.00 0.05 0.05 82 1011.9
20260507021625 18 186 0.0 0.0 0.00 0.05 0.05 81 1011.8
20260507021120 18 140 0.0 0.0 0.00 0.05 0.05 81 1011.7
20260507020619 18 142 0.0 0.0 0.00 0.05 0.05 81 1011.5
20260507020114 18 111 0.0 0.0 0.00 0.05 0.05 80 1011.2
20260507015613 18 192 0.0 0.0 0.00 0.05 0.05 80 1011.4
20260507015110 18 170 0.0 0.0 0.00 0.05 0.05 80 1011.1
20260507014607 18 218 1.6 3.2 0.00 0.05 0.05 80 1010.6
20260507014102 18 209 6.4 9.7 0.00 0.05 0.05 80 1010.7
20260507013559 18 180 1.6 1.6 0.00 0.05 0.05 80 1010.8
20260507013056 18 179 1.6 3.2 0.00 0.05 0.05 79 1011.2
20260507012554 18 195 3.2 3.2 0.00 0.05 0.05 79 1011.2
20260507012049 18 192 0.0 0.0 0.00 0.05 0.05 79 1011.2
20260507011547 19 168 1.6 1.6 0.00 0.05 0.05 79 1011.2
20260507011038 19 186 0.0 0.0 0.00 0.05 0.05 78 1011.4
20260507010538 19 177 0.0 0.0 0.00 0.05 0.05 78 1011.2
20260507010034 19 178 0.0 0.0 0.00 0.05 0.05 78 1011.4
20260507005532 19 164 0.0 0.0 0.00 0.05 0.05 78 1011.5
20260507005028 19 178 0.0 0.0 0.00 0.05 0.05 78 1011.6
20260507004525 19 196 1.6 3.2 0.00 0.05 0.05 78 1011.4
20260507004023 19 195 1.6 3.2 0.00 0.05 0.05 78 1011.7
20260507003518 19 192 0.0 0.0 0.00 0.05 0.05 78 1011.5
20260507003013 19 193 1.6 1.6 0.00 0.05 0.05 77 1011.6